| time (UTC) | temp F | wind direction | speed MPH | gust MPH | rain 1hr in | rain 24hr in | rain mn in | humidity % | barometer mb |
| 20260507172122 | 58 | 283 | 4.0 | 5.0 | 0.00 | 0.00 | 0.00 | 41 | 1011.4 |
| 20260507171601 | 58 | 347 | 0.0 | 1.0 | 0.00 | 0.00 | 0.00 | 44 | 1011.3 |
| 20260507171041 | 58 | 286 | 2.0 | 3.0 | 0.00 | 0.00 | 0.00 | 47 | 1011.9 |
| 20260507170522 | 58 | 266 | 5.0 | 8.0 | 0.00 | 0.00 | 0.00 | 56 | 1011.8 |
| 20260507165442 | 58 | 218 | 1.0 | 1.0 | 0.00 | 0.00 | 0.00 | 44 | 1011.9 |
| 20260507164922 | 58 | 261 | 0.0 | 0.0 | 0.00 | 0.00 | 0.00 | 43 | 1011.9 |
| 20260507163841 | 57 | 219 | 4.0 | 5.0 | 0.00 | 0.00 | 0.00 | 43 | 1012.1 |
| 20260507163321 | 57 | 301 | 2.0 | 3.0 | 0.00 | 0.00 | 0.00 | 40 | 1012.0 |
| 20260507162242 | 57 | 256 | 2.0 | 3.0 | 0.00 | 0.00 | 0.00 | 48 | 1012.2 |
| 20260507161721 | 57 | 211 | 5.0 | 6.0 | 0.00 | 0.00 | 0.00 | 47 | 1012.0 |
| 20260507161201 | 57 | 266 | 2.0 | 3.0 | 0.00 | 0.00 | 0.00 | 50 | 1011.9 |
| 20260507160642 | 57 | 255 | 2.0 | 3.0 | 0.00 | 0.00 | 0.00 | 50 | 1012.1 |
| 20260507155602 | 56 | 245 | 5.0 | 5.0 | 0.00 | 0.00 | 0.00 | 53 | 1012.6 |
| 20260507155042 | 56 | 236 | 6.0 | 8.0 | 0.00 | 0.00 | 0.00 | 48 | 1012.5 |
| 20260507154521 | 56 | 259 | 4.0 | 8.0 | 0.00 | 0.00 | 0.00 | 58 | 1012.3 |
| 20260507154003 | 56 | 209 | 4.0 | 5.0 | 0.00 | 0.00 | 0.00 | 52 | 1012.4 |
| 20260507153442 | 56 | 302 | 0.0 | 0.0 | 0.00 | 0.00 | 0.00 | 47 | 1012.3 |
| 20260507152922 | 56 | 268 | 4.0 | 5.0 | 0.00 | 0.00 | 0.00 | 53 | 1012.5 |
| 20260507150803 | 56 | 222 | 2.0 | 2.0 | 0.00 | 0.00 | 0.00 | 55 | 1012.6 |
| 20260507150242 | 55 | 220 | 0.0 | 0.0 | 0.00 | 0.00 | 0.00 | 58 | 1012.5 |
| 20260507145722 | 55 | 251 | 5.0 | 6.0 | 0.00 | 0.00 | 0.00 | 63 | 1012.8 |
| 20260507145203 | 55 | 208 | 2.0 | 3.0 | 0.00 | 0.00 | 0.00 | 55 | 1012.6 |
| 20260507144642 | 54 | 167 | 2.0 | 3.0 | 0.00 | 0.00 | 0.00 | 51 | 1012.6 |
| 20260507144122 | 54 | 212 | 2.0 | 3.0 | 0.00 | 0.00 | 0.00 | 54 | 1012.5 |
| 20260507143602 | 54 | 262 | 3.0 | 3.0 | 0.00 | 0.00 | 0.00 | 52 | 1012.4 |
| 20260507143042 | 54 | 214 | 0.0 | 2.0 | 0.00 | 0.00 | 0.00 | 60 | 1012.4 |
| 20260507142522 | 54 | 232 | 3.0 | 4.0 | 0.00 | 0.00 | 0.00 | 56 | 1012.5 |
| 20260507142004 | 54 | 192 | 0.0 | 0.0 | 0.00 | 0.00 | 0.00 | 56 | 1012.4 |
| 20260507141442 | 54 | 212 | 1.0 | 2.0 | 0.00 | 0.00 | 0.00 | 54 | 1012.5 |
| 20260507140922 | 54 | 224 | 0.0 | 1.0 | 0.00 | 0.00 | 0.00 | 62 | 1012.5 |
| 20260507140403 | 53 | 223 | 1.0 | 2.0 | 0.00 | 0.00 | 0.00 | 62 | 1012.3 |
| 20260507135842 | 53 | 237 | 2.0 | 3.0 | 0.00 | 0.00 | 0.00 | 55 | 1012.4 |
| 20260507135322 | 52 | 225 | 0.0 | 0.0 | 0.00 | 0.00 | 0.00 | 56 | 1012.5 |
| 20260507134803 | 52 | 228 | 2.0 | 3.0 | 0.00 | 0.00 | 0.00 | 61 | 1012.2 |
| 20260507134242 | 51 | 229 | 1.0 | 2.0 | 0.00 | 0.00 | 0.00 | 61 | 1012.3 |
| 20260507133202 | 50 | 206 | 0.0 | 1.0 | 0.00 | 0.00 | 0.00 | 67 | 1012.3 |
| 20260507132642 | 50 | 182 | 0.0 | 1.0 | 0.00 | 0.00 | 0.00 | 71 | 1012.3 |
| 20260507132122 | 49 | 181 | 0.0 | 0.0 | 0.00 | 0.00 | 0.00 | 74 | 1012.3 |
| 20260507131042 | 47 | 51 | 1.0 | 2.0 | 0.00 | 0.00 | 0.00 | 87 | 1012.3 |
| 20260507130522 | 45 | 50 | 0.0 | 0.0 | 0.00 | 0.00 | 0.00 | 97 | 1012.3 |
| 20260507130005 | 44 | 49 | 0.0 | 1.0 | 0.00 | 0.00 | 0.00 | 99 | 1012.5 |
| 20260507125434 | 44 | 50 | 0.0 | 1.0 | 0.00 | 0.00 | 0.00 | 99 | 1012.4 |
| 20260507124834 | 44 | 49 | 0.0 | 0.0 | 0.00 | 0.00 | 0.00 | 99 | 1012.3 |
| 20260507124237 | 43 | 49 | 0.0 | 0.0 | 0.00 | 0.00 | 0.00 | 99 | 1012.2 |
| 20260507123634 | 43 | 48 | 0.0 | 0.0 | 0.00 | 0.00 | 0.00 | 99 | 1012.4 |
| 20260507123114 | 42 | 47 | 0.0 | 2.0 | 0.00 | 0.00 | 0.00 | 99 | 1012.3 |
| 20260507122554 | 42 | 49 | 0.0 | 0.0 | 0.00 | 0.00 | 0.00 | 99 | 1012.3 |
| 20260507122034 | 41 | 48 | 0.0 | 0.0 | 0.00 | 0.00 | 0.00 | 99 | 1012.1 |
| 20260507121514 | 40 | 48 | 0.0 | 0.0 | 0.00 | 0.00 | 0.00 | 99 | 1012.3 |
| 20260507120954 | 39 | 47 | 0.0 | 0.0 | 0.00 | 0.00 | 0.00 | 99 | 1012.4 |
| 20260507115914 | 38 | 47 | 0.0 | 0.0 | 0.00 | 0.00 | 0.00 | 99 | 1012.2 |
| 20260507115354 | 38 | 47 | 0.0 | 0.0 | 0.00 | 0.00 | 0.00 | 99 | 1012.0 |
| 20260507114833 | 37 | 47 | 0.0 | 0.0 | 0.00 | 0.00 | 0.00 | 99 | 1012.0 |
| 20260507114314 | 37 | 47 | 0.0 | 0.0 | 0.00 | 0.00 | 0.00 | 99 | 1012.1 |
| 20260507113234 | 37 | 47 | 0.0 | 0.0 | 0.00 | 0.00 | 0.00 | 99 | 1012.0 |
| 20260507112154 | 37 | 47 | 0.0 | 0.0 | 0.00 | 0.00 | 0.00 | 99 | 1012.0 |
| 20260507111634 | 37 | 47 | 0.0 | 0.0 | 0.00 | 0.00 | 0.00 | 99 | 1011.6 |
| 20260507111114 | 37 | 47 | 0.0 | 0.0 | 0.00 | 0.00 | 0.00 | 99 | 1011.9 |
| 20260507110554 | 36 | 47 | 0.0 | 0.0 | 0.00 | 0.00 | 0.00 | 99 | 1011.7 |
| 20260507110034 | 36 | 47 | 0.0 | 0.0 | 0.00 | 0.00 | 0.00 | 99 | 1011.7 |
| 20260507105515 | 36 | 47 | 0.0 | 0.0 | 0.00 | 0.00 | 0.00 | 99 | 1011.8 |
| 20260507104330 | 36 | 47 | 0.0 | 0.0 | 0.00 | 0.00 | 0.00 | 99 | 1011.7 |
| 20260507103811 | 36 | 47 | 0.0 | 0.0 | 0.00 | 0.00 | 0.00 | 99 | 1011.6 |
| 20260507103250 | 36 | 47 | 0.0 | 0.0 | 0.00 | 0.00 | 0.00 | 99 | 1011.7 |
| 20260507102730 | 36 | 47 | 0.0 | 0.0 | 0.00 | 0.00 | 0.00 | 99 | 1011.9 |
| 20260507102210 | 36 | 47 | 0.0 | 0.0 | 0.00 | 0.00 | 0.00 | 99 | 1011.8 |
| 20260507101130 | 35 | 47 | 0.0 | 0.0 | 0.00 | 0.00 | 0.00 | 99 | 1011.9 |
| 20260507100610 | 35 | 47 | 0.0 | 0.0 | 0.00 | 0.00 | 0.00 | 99 | 1011.7 |
| 20260507100051 | 35 | 47 | 0.0 | 0.0 | 0.00 | 0.00 | 0.00 | 99 | 1011.7 |
| 20260507095530 | 35 | 47 | 0.0 | 0.0 | 0.00 | 0.00 | 0.00 | 99 | 1012.0 |
| 20260507095011 | 35 | 47 | 0.0 | 0.0 | 0.00 | 0.00 | 0.00 | 99 | 1011.9 |
| 20260507093930 | 35 | 47 | 0.0 | 0.0 | 0.00 | 0.00 | 0.00 | 99 | 1011.8 |
| 20260507092850 | 35 | 47 | 0.0 | 0.0 | 0.00 | 0.00 | 0.00 | 99 | 1012.2 |
| 20260507092330 | 35 | 47 | 0.0 | 0.0 | 0.00 | 0.00 | 0.00 | 99 | 1012.0 |
| 20260507091810 | 34 | 47 | 0.0 | 0.0 | 0.00 | 0.00 | 0.00 | 99 | 1012.0 |
| 20260507091250 | 35 | 47 | 0.0 | 0.0 | 0.00 | 0.00 | 0.00 | 99 | 1012.1 |
| 20260507090211 | 35 | 47 | 0.0 | 0.0 | 0.00 | 0.00 | 0.00 | 99 | 1011.9 |
| 20260507085650 | 35 | 47 | 0.0 | 0.0 | 0.00 | 0.00 | 0.00 | 99 | 1012.0 |
| 20260507084610 | 35 | 47 | 0.0 | 0.0 | 0.00 | 0.00 | 0.00 | 99 | 1011.9 |
| 20260507084050 | 36 | 47 | 0.0 | 0.0 | 0.00 | 0.00 | 0.00 | 99 | 1011.8 |
| 20260507083011 | 36 | 47 | 0.0 | 0.0 | 0.00 | 0.00 | 0.00 | 99 | 1011.7 |
| 20260507082450 | 36 | 47 | 0.0 | 0.0 | 0.00 | 0.00 | 0.00 | 99 | 1011.7 |
| 20260507081930 | 36 | 47 | 0.0 | 0.0 | 0.00 | 0.00 | 0.00 | 99 | 1011.8 |
| 20260507081410 | 35 | 47 | 0.0 | 0.0 | 0.00 | 0.00 | 0.00 | 99 | 1011.6 |
| 20260507080850 | 35 | 47 | 0.0 | 0.0 | 0.00 | 0.00 | 0.00 | 98 | 1011.8 |
| 20260507080330 | 36 | 47 | 0.0 | 0.0 | 0.00 | 0.00 | 0.00 | 98 | 1011.8 |
| 20260507075810 | 36 | 47 | 0.0 | 0.0 | 0.00 | 0.00 | 0.00 | 98 | 1011.7 |
| 20260507075250 | 36 | 47 | 0.0 | 0.0 | 0.00 | 0.00 | 0.00 | 98 | 1011.8 |
| 20260507074730 | 36 | 47 | 0.0 | 0.0 | 0.00 | 0.00 | 0.00 | 98 | 1011.9 |
| 20260507074211 | 37 | 47 | 0.0 | 0.0 | 0.00 | 0.00 | 0.00 | 98 | 1011.7 |
| 20260507073650 | 36 | 47 | 0.0 | 0.0 | 0.00 | 0.00 | 0.00 | 98 | 1011.9 |
| 20260507073130 | 36 | 47 | 0.0 | 0.0 | 0.00 | 0.00 | 0.00 | 97 | 1011.9 |
| 20260507072610 | 36 | 47 | 0.0 | 0.0 | 0.00 | 0.00 | 0.00 | 97 | 1012.1 |
| 20260507072050 | 36 | 47 | 0.0 | 0.0 | 0.00 | 0.00 | 0.00 | 97 | 1011.8 |
| 20260507071530 | 37 | 47 | 0.0 | 0.0 | 0.00 | 0.00 | 0.00 | 97 | 1011.7 |
| 20260507071011 | 37 | 47 | 0.0 | 0.0 | 0.00 | 0.00 | 0.00 | 96 | 1011.7 |
| 20260507065930 | 36 | 47 | 0.0 | 0.0 | 0.00 | 0.00 | 0.00 | 95 | 1011.7 |
| 20260507065410 | 37 | 47 | 0.0 | 0.0 | 0.00 | 0.00 | 0.00 | 96 | 1011.7 |
| 20260507064850 | 37 | 47 | 0.0 | 0.0 | 0.00 | 0.00 | 0.00 | 95 | 1011.8 |
| 20260507064330 | 37 | 47 | 0.0 | 0.0 | 0.00 | 0.00 | 0.00 | 95 | 1011.8 |
| 20260507063250 | 38 | 47 | 0.0 | 0.0 | 0.00 | 0.00 | 0.00 | 94 | 1011.8 |
| 20260507062730 | 38 | 47 | 0.0 | 0.0 | 0.00 | 0.00 | 0.00 | 94 | 1011.9 |
| 20260507062210 | 39 | 47 | 0.0 | 0.0 | 0.00 | 0.00 | 0.00 | 93 | 1011.9 |
| 20260507061650 | 39 | 47 | 0.0 | 0.0 | 0.00 | 0.00 | 0.00 | 93 | 1012.1 |
| 20260507061130 | 39 | 47 | 0.0 | 0.0 | 0.00 | 0.00 | 0.00 | 93 | 1012.0 |
| 20260507060610 | 39 | 47 | 0.0 | 0.0 | 0.00 | 0.00 | 0.00 | 92 | 1012.0 |
| 20260507060051 | 40 | 47 | 0.0 | 0.0 | 0.00 | 0.00 | 0.00 | 92 | 1012.0 |
| 20260507055530 | 40 | 47 | 0.0 | 0.0 | 0.00 | 0.00 | 0.00 | 92 | 1012.1 |
| 20260507055011 | 40 | 47 | 0.0 | 0.0 | 0.00 | 0.00 | 0.00 | 91 | 1012.0 |
| 20260507054450 | 40 | 47 | 0.0 | 0.0 | 0.00 | 0.00 | 0.00 | 91 | 1012.2 |
| 20260507053930 | 41 | 47 | 0.0 | 0.0 | 0.00 | 0.00 | 0.00 | 91 | 1011.7 |
| 20260507053411 | 41 | 47 | 0.0 | 0.0 | 0.00 | 0.00 | 0.00 | 91 | 1011.9 |
| 20260507052850 | 42 | 47 | 0.0 | 0.0 | 0.00 | 0.00 | 0.00 | 90 | 1011.8 |
| 20260507052330 | 42 | 47 | 0.0 | 0.0 | 0.00 | 0.00 | 0.00 | 90 | 1011.8 |
| 20260507051810 | 42 | 47 | 0.0 | 0.0 | 0.00 | 0.00 | 0.00 | 91 | 1011.7 |
| 20260507051250 | 42 | 47 | 0.0 | 0.0 | 0.00 | 0.00 | 0.00 | 92 | 1011.8 |
| 20260507050730 | 42 | 47 | 0.0 | 1.0 | 0.00 | 0.00 | 0.00 | 94 | 1011.9 |
| 20260507050211 | 42 | 47 | 1.0 | 2.0 | 0.00 | 0.00 | 0.00 | 97 | 1011.6 |
| 20260507045650 | 42 | 38 | 0.0 | 0.0 | 0.00 | 0.00 | 0.00 | 97 | 1011.8 |
| 20260507045130 | 41 | 316 | 0.0 | 1.0 | 0.00 | 0.00 | 0.00 | 98 | 1011.9 |
| 20260507044050 | 41 | 314 | 0.0 | 0.0 | 0.00 | 0.00 | 0.00 | 98 | 1011.6 |
| 20260507043531 | 41 | 314 | 0.0 | 0.0 | 0.00 | 0.00 | 0.00 | 98 | 1011.6 |
| 20260507043011 | 41 | 313 | 0.0 | 0.0 | 0.00 | 0.00 | 0.00 | 98 | 1011.8 |
| 20260507042451 | 41 | 312 | 0.0 | 0.0 | 0.00 | 0.00 | 0.00 | 98 | 1011.9 |
| 20260507041930 | 41 | 312 | 0.0 | 0.0 | 0.00 | 0.01 | 0.00 | 97 | 1011.6 |
| 20260507041410 | 41 | 312 | 0.0 | 0.0 | 0.00 | 0.01 | 0.00 | 97 | 1011.8 |
| 20260507040850 | 41 | 312 | 0.0 | 0.0 | 0.00 | 0.01 | 0.00 | 97 | 1011.7 |
| 20260507040330 | 41 | 312 | 0.0 | 0.0 | 0.00 | 0.01 | 0.00 | 97 | 1011.7 |
| 20260507035810 | 41 | 312 | 0.0 | 0.0 | 0.00 | 0.02 | 0.00 | 96 | 1011.8 |
| 20260507035250 | 41 | 312 | 0.0 | 0.0 | 0.00 | 0.03 | 0.00 | 96 | 1011.7 |
| 20260507034730 | 41 | 312 | 0.0 | 0.0 | 0.00 | 0.03 | 0.00 | 96 | 1011.8 |
| 20260507034211 | 41 | 312 | 0.0 | 0.0 | 0.00 | 0.04 | 0.00 | 96 | 1011.5 |
| 20260507033650 | 42 | 312 | 0.0 | 0.0 | 0.00 | 0.04 | 0.00 | 95 | 1011.9 |
| 20260507033130 | 42 | 312 | 0.0 | 0.0 | 0.00 | 0.04 | 0.00 | 95 | 1011.7 |
| 20260507032610 | 42 | 312 | 0.0 | 0.0 | 0.00 | 0.05 | 0.00 | 94 | 1011.6 |
| 20260507032051 | 42 | 312 | 0.0 | 0.0 | 0.00 | 0.06 | 0.00 | 94 | 1011.7 |
| 20260507031531 | 42 | 312 | 0.0 | 0.0 | 0.00 | 0.06 | 0.00 | 94 | 1011.5 |
| 20260507030450 | 42 | 312 | 0.0 | 0.0 | 0.00 | 0.06 | 0.00 | 93 | 1011.5 |
| 20260507025930 | 42 | 312 | 0.0 | 0.0 | 0.00 | 0.06 | 0.00 | 92 | 1011.8 |
| 20260507024314 | 43 | 312 | 0.0 | 0.0 | 0.00 | 0.06 | 0.00 | 91 | 1011.6 |
| 20260507023754 | 43 | 312 | 0.0 | 0.0 | 0.00 | 0.06 | 0.00 | 90 | 1011.3 |
| 20260507023233 | 44 | 312 | 0.0 | 0.0 | 0.00 | 0.06 | 0.00 | 90 | 1011.5 |
| 20260507022154 | 44 | 312 | 0.0 | 0.0 | 0.00 | 0.07 | 0.00 | 89 | 1011.2 |
| 20260507021633 | 45 | 312 | 0.0 | 0.0 | 0.00 | 0.08 | 0.00 | 88 | 1011.2 |
| 20260507021115 | 45 | 312 | 0.0 | 0.0 | 0.00 | 0.08 | 0.00 | 87 | 1011.2 |
| 20260507020554 | 44 | 312 | 0.0 | 0.0 | 0.00 | 0.08 | 0.00 | 86 | 1011.0 |
| 20260507020033 | 45 | 312 | 0.0 | 0.0 | 0.00 | 0.10 | 0.00 | 85 | 1010.8 |
| 20260507015515 | 45 | 312 | 0.0 | 0.0 | 0.00 | 0.12 | 0.00 | 84 | 1011.0 |
| 20260507014433 | 46 | 312 | 0.0 | 0.0 | 0.00 | 0.17 | 0.00 | 83 | 1010.9 |
| 20260507013914 | 46 | 312 | 0.0 | 0.0 | 0.00 | 0.17 | 0.00 | 82 | 1010.8 |
| 20260507012833 | 47 | 312 | 0.0 | 0.0 | 0.00 | 0.18 | 0.00 | 79 | 1010.8 |
| 20260507012314 | 47 | 312 | 0.0 | 0.0 | 0.00 | 0.18 | 0.00 | 78 | 1010.8 |
| 20260507011755 | 48 | 312 | 0.0 | 0.0 | 0.00 | 0.18 | 0.00 | 75 | 1010.7 |
| 20260507011233 | 48 | 312 | 0.0 | 0.0 | 0.00 | 0.19 | 0.00 | 73 | 1010.7 |
| 20260507010715 | 49 | 312 | 0.0 | 0.0 | 0.00 | 0.19 | 0.00 | 70 | 1010.4 |
| 20260507010155 | 50 | 312 | 0.0 | 1.0 | 0.00 | 0.19 | 0.00 | 68 | 1010.2 |
| 20260507005633 | 51 | 312 | 0.0 | 0.0 | 0.00 | 0.19 | 0.00 | 67 | 1010.8 |
| 20260507005115 | 51 | 311 | 0.0 | 0.0 | 0.00 | 0.22 | 0.00 | 65 | 1010.4 |
| 20260507004555 | 52 | 310 | 0.0 | 0.0 | 0.00 | 0.25 | 0.00 | 64 | 1010.5 |
| 20260507003515 | 53 | 272 | 0.0 | 1.0 | 0.00 | 0.27 | 0.00 | 60 | 1010.5 |
| 20260507002954 | 53 | 269 | 0.0 | 0.0 | 0.00 | 0.27 | 0.00 | 62 | 1010.4 |
| 20260507002433 | 53 | 269 | 0.0 | 0.0 | 0.00 | 0.28 | 0.00 | 61 | 1010.4 |
| 20260507001914 | 54 | 331 | 0.0 | 1.0 | 0.00 | 0.28 | 0.00 | 61 | 1010.2 |
| 20260507001354 | 54 | 305 | 0.0 | 2.0 | 0.00 | 0.28 | 0.00 | 60 | 1010.3 |
| 20260507000833 | 55 | 305 | 1.0 | 2.0 | 0.00 | 0.28 | 0.00 | 57 | 1010.1 |
| 20260507000315 | 56 | 9 | 0.0 | 0.0 | 0.00 | 0.29 | 0.00 | 55 | 1010.2 |
| 20260506235755 | 57 | 16 | 0.0 | 0.0 | 0.00 | 0.29 | 0.00 | 55 | 1009.9 |
| 20260506235233 | 56 | 0 | 3.0 | 4.0 | 0.00 | 0.29 | 0.00 | 56 | 1010.0 |
| 20260506234633 | 57 | 298 | 0.0 | 1.0 | 0.00 | 0.29 | 0.00 | 59 | 1010.0 |
| 20260506234033 | 56 | 294 | 0.0 | 1.0 | 0.00 | 0.29 | 0.00 | 55 | 1009.8 |
| 20260506233433 | 57 | 316 | 3.0 | 4.0 | 0.00 | 0.29 | 0.00 | 54 | 1009.9 |
| 20260506232833 | 56 | 279 | 2.0 | 3.0 | 0.00 | 0.30 | 0.00 | 55 | 1009.8 |
| 20260506232333 | 57 | 303 | 6.0 | 9.0 | 0.00 | 0.30 | 0.00 | 53 | 1010.1 |
| 20260506231733 | 59 | 302 | 4.0 | 5.0 | 0.00 | 0.30 | 0.00 | 50 | 1009.9 |
| 20260506231133 | 59 | 265 | 6.0 | 8.0 | 0.00 | 0.30 | 0.00 | 52 | 1010.0 |
| 20260506230533 | 58 | 269 | 5.0 | 8.0 | 0.00 | 0.31 | 0.00 | 54 | 1009.8 |
| 20260506225933 | 58 | 301 | 2.0 | 4.0 | 0.00 | 0.32 | 0.00 | 54 | 1009.9 |
| 20260506225333 | 58 | 273 | 2.0 | 5.0 | 0.00 | 0.32 | 0.00 | 54 | 1010.0 |
| 20260506224833 | 58 | 272 | 0.0 | 1.0 | 0.00 | 0.32 | 0.00 | 52 | 1010.1 |
| 20260506224233 | 59 | 17 | 1.0 | 2.0 | 0.00 | 0.32 | 0.00 | 52 | 1009.9 |
| 20260506223633 | 58 | 339 | 0.0 | 1.0 | 0.00 | 0.33 | 0.00 | 51 | 1010.0 |
| 20260506223033 | 59 | 269 | 3.0 | 4.0 | 0.00 | 0.34 | 0.00 | 51 | 1010.2 |
| 20260506222433 | 59 | 272 | 3.0 | 5.0 | 0.00 | 0.35 | 0.00 | 54 | 1010.0 |
| 20260506221833 | 58 | 339 | 1.0 | 2.0 | 0.00 | 0.35 | 0.00 | 49 | 1009.9 |
| 20260506221233 | 59 | 270 | 13.0 | 14.0 | 0.00 | 0.36 | 0.00 | 54 | 1010.0 |
| 20260506220633 | 59 | 350 | 2.0 | 3.0 | 0.00 | 0.36 | 0.00 | 49 | 1010.1 |
| 20260506220033 | 59 | 306 | 6.0 | 6.0 | 0.00 | 0.38 | 0.00 | 49 | 1010.2 |
| 20260506215433 | 59 | 261 | 2.0 | 5.0 | 0.00 | 0.39 | 0.00 | 52 | 1010.1 |
| 20260506214833 | 59 | 320 | 5.0 | 8.0 | 0.00 | 0.39 | 0.00 | 49 | 1010.1 |
| 20260506214233 | 60 | 330 | 3.0 | 4.0 | 0.00 | 0.41 | 0.00 | 49 | 1010.2 |
| 20260506213633 | 59 | 237 | 1.0 | 2.0 | 0.00 | 0.41 | 0.00 | 53 | 1010.3 |
| 20260506211833 | 57 | 249 | 1.0 | 3.0 | 0.00 | 0.44 | 0.00 | 54 | 1010.3 |
| 20260506211233 | 57 | 298 | 2.0 | 3.0 | 0.00 | 0.44 | 0.00 | 54 | 1010.2 |
| 20260506210633 | 57 | 298 | 2.0 | 3.0 | 0.00 | 0.45 | 0.00 | 56 | 1010.2 |
| 20260506210033 | 57 | 109 | 0.0 | 1.0 | 0.00 | 0.46 | 0.00 | 59 | 1010.2 |
| 20260506205433 | 57 | 294 | 0.0 | 0.0 | 0.00 | 0.47 | 0.00 | 55 | 1010.2 |
| 20260506204833 | 59 | 245 | 1.0 | 2.0 | 0.00 | 0.48 | 0.00 | 53 | 1010.1 |
| 20260506204233 | 58 | 265 | 3.0 | 4.0 | 0.00 | 0.48 | 0.00 | 53 | 1010.3 |
| 20260506203633 | 59 | 347 | 1.0 | 3.0 | 0.00 | 0.49 | 0.00 | 54 | 1010.5 |
| 20260506203033 | 60 | 359 | 2.0 | 2.0 | 0.00 | 0.49 | 0.00 | 53 | 1010.1 |
| 20260506202433 | 59 | 287 | 2.0 | 3.0 | 0.00 | 0.49 | 0.00 | 51 | 1010.5 |
| 20260506201834 | 58 | 317 | 0.0 | 2.0 | 0.00 | 0.50 | 0.00 | 50 | 1010.0 |
| 20260506201233 | 58 | 328 | 5.0 | 5.0 | 0.00 | 0.50 | 0.00 | 61 | 1010.2 |
| 20260506200633 | 59 | 266 | 4.0 | 5.0 | 0.00 | 0.50 | 0.00 | 51 | 1009.9 |
| 20260506200036 | 58 | 258 | 5.0 | 8.0 | 0.00 | 0.51 | 0.00 | 52 | 1009.9 |
| 20260506195533 | 58 | 242 | 3.0 | 4.0 | 0.00 | 0.51 | 0.00 | 55 | 1010.2 |
| 20260506194933 | 57 | 53 | 1.0 | 2.0 | 0.00 | 0.51 | 0.00 | 51 | 1010.1 |
| 20260506194333 | 57 | 266 | 4.0 | 6.0 | 0.00 | 0.51 | 0.00 | 55 | 1010.2 |
| 20260506193733 | 57 | 273 | 5.0 | 5.0 | 0.00 | 0.51 | 0.00 | 59 | 1010.1 |
| 20260506193133 | 57 | 260 | 1.0 | 1.0 | 0.00 | 0.51 | 0.00 | 60 | 1010.4 |
| 20260506192533 | 56 | 293 | 2.0 | 4.0 | 0.00 | 0.51 | 0.00 | 65 | 1010.5 |
| 20260506191433 | 56 | 263 | 0.0 | 2.0 | 0.00 | 0.51 | 0.00 | 72 | 1010.5 |
| 20260506190333 | 55 | 2 | 2.0 | 3.0 | 0.00 | 0.51 | 0.00 | 70 | 1010.4 |
| 20260506185733 | 55 | 279 | 3.0 | 4.0 | 0.00 | 0.51 | 0.00 | 76 | 1010.6 |
| 20260506185133 | 55 | 273 | 5.0 | 8.0 | 0.00 | 0.51 | 0.00 | 76 | 1010.6 |
| 20260506184533 | 54 | 290 | 4.0 | 6.0 | 0.00 | 0.51 | 0.00 | 74 | 1010.4 |
| 20260506183333 | 54 | 246 | 2.0 | 3.0 | 0.00 | 0.51 | 0.00 | 77 | 1010.6 |
| 20260506182733 | 54 | 291 | 2.0 | 3.0 | 0.00 | 0.51 | 0.00 | 80 | 1010.2 |
| 20260506182133 | 53 | 282 | 4.0 | 4.0 | 0.00 | 0.51 | 0.00 | 81 | 1010.4 |
| 20260506181533 | 53 | 260 | 4.0 | 4.0 | 0.00 | 0.51 | 0.00 | 80 | 1010.6 |
| 20260506180933 | 53 | 242 | 4.0 | 5.0 | 0.00 | 0.51 | 0.00 | 79 | 1010.4 |
| 20260506180333 | 53 | 253 | 1.0 | 2.0 | 0.00 | 0.51 | 0.00 | 82 | 1010.3 |
| 20260506175733 | 53 | 303 | 3.0 | 4.0 | 0.00 | 0.51 | 0.00 | 82 | 1010.4 |
| 20260506175133 | 53 | 274 | 4.0 | 5.0 | 0.00 | 0.51 | 0.00 | 83 | 1010.5 |
| 20260506174533 | 53 | 304 | 3.0 | 3.0 | 0.00 | 0.51 | 0.00 | 83 | 1010.5 |
| 20260506173933 | 52 | 234 | 2.0 | 2.0 | 0.00 | 0.51 | 0.00 | 83 | 1010.7 |
| 20260506173333 | 52 | 293 | 3.0 | 4.0 | 0.00 | 0.51 | 0.00 | 82 | 1010.5 |
| 20260506172733 | 52 | 245 | 3.0 | 4.0 | 0.00 | 0.51 | 0.00 | 83 | 1010.5 |